EW4378 Weather Reports


Display with metric or nautical units.
time (UTC)temp
F
wind
direction
speed
MPH
gust
MPH
rain 1hr
in
rain 24hr
in
rain mn
in
humidity
%
barometer
mb
20260504204551 54 215 21.0 27.0 0.00 0.00 0.00 1 1012.0
20260504203059 54 212 19.0 25.0 0.00 0.00 0.00 1 1012.0
20260504201542 55 197 19.0 26.0 0.00 0.00 0.00 1 1012.0
20260504200037 55 220 23.0 29.0 0.00 0.00 0.00 1 1012.2
20260504194533 55 217 23.0 29.0 0.00 0.00 0.00 1 1012.3
20260504193028 55 215 21.0 31.0 0.00 0.00 0.00 1 1012.3
20260504191524 55 211 22.0 28.0 0.00 0.00 0.00 1 1012.3
20260504190017 55 254 22.0 28.0 0.00 0.00 0.00 1 1012.5
20260504184514 55 232 24.0 29.0 0.00 0.00 0.00 1 1012.7
20260504183009 55 232 24.0 29.0 0.00 0.00 0.00 1 1012.8
20260504181511 54 235 23.0 28.0 0.00 0.00 0.00 1 1013.0
20260504180059 54 212 21.0 27.0 0.00 0.00 0.00 1 1013.2
20260504174606 54 225 24.0 27.0 0.00 0.00 0.00 1 1013.3
20260504173050 54 234 22.0 27.0 0.00 0.00 0.00 1 1013.4
20260504171549 54 233 19.0 24.0 0.00 0.00 0.00 1 1013.6
20260504081507 53 251 16.0 21.0 0.00 0.00 0.00 1 1014.3
20260504050009 54 254 13.0 17.0 0.00 0.00 0.00 1 1013.5
20260504044512 54 258 13.0 17.0 0.00 0.00 0.00 1 1013.6
20260504043003 55 250 12.0 14.0 0.00 0.00 0.00 1 1013.5
20260504041558 54 250 10.0 13.0 0.00 0.00 0.00 1 1013.4
20260504040106 55 259 10.0 16.0 0.00 0.00 0.00 1 1013.5
20260504034610 55 255 12.0 16.0 0.00 0.00 0.00 1 1013.4
20260504033047 55 254 12.0 15.0 0.00 0.00 0.00 1 1013.2
20260504031545 55 262 11.0 14.0 0.00 0.00 0.00 1 1013.2
20260504024546 54 248 9.0 11.0 0.00 0.00 0.00 1 1013.3
20260504023039 53 265 3.0 5.0 0.00 0.00 0.00 1 1013.2
20260504021534 53 263 2.0 4.0 0.00 0.00 0.00 1 1013.1
20260504020031 53 293 2.0 4.0 0.00 0.00 0.00 1 1013.1
20260504014525 53 281 2.0 4.0 0.00 0.00 0.00 1 1013.0
20260504013028 53 271 2.0 4.0 0.00 0.00 0.00 1 1012.9
20260504011515 54 277 2.0 4.0 0.00 0.00 0.00 1 1012.8
20260504010011 54 276 2.0 4.0 0.00 0.00 0.00 1 1012.5
20260504004507 54 264 3.0 4.0 0.00 0.00 0.00 1 1012.4
20260504003002 55 266 2.0 4.0 0.00 0.00 0.00 1 1012.1
20260504001607 56 268 3.0 5.0 0.00 0.00 0.00 1 1012.0
20260504000057 56 283 3.0 7.0 0.00 0.00 0.00 1 1011.8
20260503234550 56 282 4.0 10.0 0.00 0.00 0.00 1 1011.6
20260503233049 57 304 4.0 11.0 0.00 0.00 0.00 1 1011.3
20260503231552 58 298 8.0 20.0 0.00 0.00 0.00 1 1011.2
20260503230047 58 293 4.0 14.0 0.00 0.00 0.00 1 1011.2
20260503224548 58 286 6.0 18.0 0.00 0.00 0.00 1 1011.1
20260503223046 58 323 4.0 19.0 0.00 0.00 0.00 1 1011.0
20260503221545 58 36 6.0 21.0 0.00 0.00 0.00 1 1010.9
20260503220039 58 330 9.0 17.0 0.00 0.00 0.00 1 1011.0
20260503214539 58 317 8.0 17.0 0.00 0.00 0.00 1 1010.9
20260503213042 57 306 10.0 23.0 0.00 0.00 0.00 1 1010.6
20260503211535 57 306 9.0 19.0 0.00 0.00 0.00 1 1010.6
20260503210026 57 306 5.0 18.0 0.00 0.00 0.00 1 1010.5